Location: Zagreb
(45.8000°N, 16.0000°E)
Time: 08:26:43
(UTC+02:00)

Courier 1B - Pass Details

Date: 09 August 2020
Orbit: 962 x 1209 km, 28.3° (Epoch: 27 September)

Event Time Altitude Azimuth Distance (km) Brightness Sun altitude
Rises 21:49:59 0° 238° (WSW) 3,863 10.8 -15.0°
Reaches altitude 10° 21:53:47 10° 220° (SW) 2,857 9.9 -15.5°
Maximum altitude 21:58:04 17° 182° (S) 2,307 9.1 -16.0°
Enters shadow 21:59:13 17° 169° (S) 2,335 9.0 -16.2°
Drops below altitude 10° 22:02:13 10° 143° (SE) 2,757 - -16.5°
Sets 22:05:48 0° 124° (SE) 3,673 - -17.0°
